Regional Weather Roundup
Issued by NWS Cleveland, OH

Home | Current Version | Previous Version | Text Only | Print | Product List | Glossary On
Versions: 1 2 3 4 5 6 7 8 9 10 11 12 13 14 15 16 17 18 19 20 21 22 23 24 25 26 27 28 29 30 31 32 33 34 35 36 37 38 39 40 41 42 43 44 45 46 47 48 49 50
519
ASUS41 KCLE 201112
RWRCLE
OHIO REGIONAL WEATHER ROUNDUP
NATIONAL WEATHER SERVICE WILMINGTON, OH
700 AM EDT FRI OCT 20 2017

NOTE: "FAIR" INDICATES FEW OR NO CLOUDS BELOW 12,000 FEET WITH NO
SIGNIFICANT WEATHER AND/OR OBSTRUCTIONS TO VISIBILITY.

OHZ001>008-015>018-024>027-034-035-043-044-201200-
   NORTHWEST OHIO

CITY           SKY/WX    TMP DP  RH WIND       PRES   REMARKS
DEFIANCE       FAIR      40  38  93 CALM      30.26R
FINDLAY        FAIR      42  38  85 CALM      30.26R
TOLEDO EXPRESS FAIR      39  38  96 W3        30.27R
TOLEDO EXEC    FAIR      44  36  73 CALM      30.27R
LIMA           FAIR      42  42 100 SE3       30.26S FOG
$$

OHZ009>014-019>023-028>033-038-089-201200-
   NORTHEAST OHIO

CITY           SKY/WX    TMP DP  RH WIND       PRES   REMARKS
CLE-HOPKINS    FAIR      46  43  89 S3        30.29R
CLE-LAKEFRONT  FAIR      52  45  77 SE5       30.25R
CUY CO. ARPT   CLEAR     45  43  93 SE6       30.27
LORAIN-ELYRIA  FAIR      43  37  79 W5        30.27R
ASHTABULA      FAIR      41  40  96 CALM      30.27R
AKRON-CANTON   FAIR      45  42  89 CALM      30.27R
WOOSTER        FAIR      40  38  93 CALM      30.27R
MANSFIELD      FAIR      46  41  82 CALM      30.27R
YOUNGSTOWN     FAIR      44  43  96 CALM      30.26R
$$

OHZ042-051>053-060>062-070>072-077>081-201200-
  SOUTHWEST OHIO

CITY           SKY/WX    TMP DP  RH WIND       PRES   REMARKS
CINC-COVINGTON FAIR      48  48 100 S3        30.27R FOG
CINC-LUNKEN    FOG       48  48 100 CALM      30.30R VSB 1/4
HAMILTON       FAIR      42  41  96 CALM      30.29R FOG
DAYTON         FAIR      48  48 100 SW3       30.28R
WRIGHT-PAT AFB PTCLDY    46  46 100 CALM      30.27R
DAYTON GENERAL FAIR      50  48  93 CALM      30.27R FOG
WILMINGTON     FAIR      47  47 100 CALM      30.28R FOG
$$

OHZ036-037-039>041-045>050-054>059-063>069-073>076-082>088-201200-
  CENTRAL AND SOUTHEAST OHIO

CITY           SKY/WX    TMP DP  RH WIND       PRES   REMARKS
COLUMBUS       FAIR      47  46  97 CALM      30.26R
OSU AIRPORT    FAIR      49  49 100 N3        30.27R
BOLTON FIELD   NOT AVBL
RICKENBACK AFB FAIR      45  45 100 CALM      30.27R
NEWARK         MOCLDY    43  41  93 CALM      30.27R
MARION         FAIR      40  38  93 CALM      30.28R FOG
LANCASTER      FAIR      43  43 100 CALM      30.27R FOG
ZANESVILLE     FAIR      44  42  93 CALM      30.27R FOG
NEW PHILLY     FAIR      44  41  89 CALM      30.28R
$$




USA.gov is the U.S. government's official web portal to all federal, state and local government web resources and services.